"Time","Value","Approval","myLocation"
"2023-05-06 00:00",11.5280663836715,"Approved","OW407"
"2023-05-06 01:00",11.5290655594135,"Approved","OW407"
"2023-05-06 02:00",11.5280647351556,"Approved","OW407"
"2023-05-06 03:00",11.5280639108977,"Approved","OW407"
"2023-05-06 04:00",11.5270630866398,"Approved","OW407"
"2023-05-06 05:00",11.5270622623819,"Approved","OW407"
"2023-05-06 06:00",11.526061438124,"Approved","OW407"
"2023-05-06 07:00",11.5260606138661,"Approved","OW407"
"2023-05-06 08:00",11.5250597896082,"Approved","OW407"
"2023-05-06 09:00",11.5260589653503,"Approved","OW407"
"2023-05-06 10:00",11.5250581410923,"Approved","OW407"
"2023-05-06 11:00",11.5250573168344,"Approved","OW407"
"2023-05-06 12:00",11.5230564925765,"Approved","OW407"
"2023-05-06 13:00",11.5240556683186,"Approved","OW407"
"2023-05-06 14:00",11.5210548440607,"Approved","OW407"
"2023-05-06 15:00",11.5190540198028,"Approved","OW407"
"2023-05-06 16:00",11.5170531955449,"Approved","OW407"
"2023-05-06 17:00",11.514052371287,"Approved","OW407"
"2023-05-06 18:00",11.5120515470291,"Approved","OW407"
"2023-05-06 19:00",11.5090507227712,"Approved","OW407"
"2023-05-06 20:00",11.5090498985132,"Approved","OW407"
"2023-05-06 21:00",11.5050490742553,"Approved","OW407"
"2023-05-06 22:00",11.5020482499974,"Approved","OW407"
"2023-05-06 23:00",11.5020474257395,"Approved","OW407"
"2023-05-07 00:00",11.5010466014816,"Approved","OW407"
"2023-05-07 01:00",11.4990457772237,"Approved","OW407"
"2023-05-07 02:00",11.4990449529658,"Approved","OW407"
"2023-05-07 03:00",11.5000441287079,"Approved","OW407"
"2023-05-07 04:00",11.50004330445,"Approved","OW407"
"2023-05-07 05:00",11.5010424801921,"Approved","OW407"
"2023-05-07 06:00",11.4990416559341,"Approved","OW407"
"2023-05-07 07:00",11.4990408316762,"Approved","OW407"
"2023-05-07 08:00",11.4980400074183,"Approved","OW407"
"2023-05-07 09:00",11.4990391831604,"Approved","OW407"
"2023-05-07 10:00",11.4950383589025,"Approved","OW407"
"2023-05-07 11:00",11.4970375346446,"Approved","OW407"
"2023-05-07 12:00",11.4970367103867,"Approved","OW407"
"2023-05-07 13:00",11.4970358861288,"Approved","OW407"
"2023-05-07 14:00",11.4920350618709,"Approved","OW407"
"2023-05-07 15:00",11.4780342376129,"Approved","OW407"
"2023-05-07 16:00",11.474033413355,"Approved","OW407"
"2023-05-07 17:00",11.4780325890971,"Approved","OW407"
"2023-05-07 18:00",11.4830317648392,"Approved","OW407"
"2023-05-07 19:00",11.4990309405813,"Approved","OW407"
"2023-05-07 20:00",11.4850301163234,"Approved","OW407"
"2023-05-07 21:00",11.4750292920655,"Approved","OW407"
"2023-05-07 22:00",11.4740284678076,"Approved","OW407"
"2023-05-07 23:00",11.4690276435497,"Approved","OW407"
"2023-05-08 00:00",11.4670268192918,"Approved","OW407"
"2023-05-08 01:00",11.4650259950338,"Approved","OW407"
"2023-05-08 02:00",11.4630251707759,"Approved","OW407"
"2023-05-08 03:00",11.462024346518,"Approved","OW407"
"2023-05-08 04:00",11.4620235222601,"Approved","OW407"
"2023-05-08 05:00",11.4610226980022,"Approved","OW407"
"2023-05-08 06:00",11.4620218737443,"Approved","OW407"
"2023-05-08 07:00",11.4620210494864,"Approved","OW407"
"2023-05-08 08:00",11.4610202252285,"Approved","OW407"
"2023-05-08 09:00",11.4620194009706,"Approved","OW407"
"2023-05-08 10:00",11.4610185767127,"Approved","OW407"
"2023-05-08 11:00",11.4610177524547,"Approved","OW407"
"2023-05-08 12:00",11.4610169281968,"Approved","OW407"
"2023-05-08 13:00",11.4610161039389,"Approved","OW407"
"2023-05-08 14:00",11.463015279681,"Approved","OW407"
"2023-05-08 15:00",11.4600144554231,"Approved","OW407"
"2023-05-08 16:00",11.4540136311652,"Approved","OW407"
"2023-05-08 17:00",11.4470128069073,"Approved","OW407"
"2023-05-08 18:00",11.4510119826494,"Approved","OW407"
"2023-05-08 19:00",11.4550111583915,"Approved","OW407"
"2023-05-08 20:00",11.4590103341336,"Approved","OW407"
"2023-05-08 21:00",11.4530095098756,"Approved","OW407"
"2023-05-08 22:00",11.4450086856177,"Approved","OW407"
"2023-05-08 23:00",11.4440078613598,"Approved","OW407"
"2023-05-09 00:00",11.4430070371019,"Approved","OW407"
"2023-05-09 01:00",11.442006212844,"Approved","OW407"
"2023-05-09 02:00",11.4400053885861,"Approved","OW407"
"2023-05-09 03:00",11.4400045643282,"Approved","OW407"
"2023-05-09 04:00",11.4400037400703,"Approved","OW407"
"2023-05-09 05:00",11.4410029158124,"Approved","OW407"
"2023-05-09 06:00",11.4450020915544,"Approved","OW407"
"2023-05-09 07:00",11.4450012672965,"Approved","OW407"
"2023-05-09 08:00",11.4460004430386,"Approved","OW407"
"2023-05-09 09:00",11.4489996187807,"Approved","OW407"
"2023-05-09 10:00",11.4499987945228,"Approved","OW407"
"2023-05-09 11:00",11.4539979702649,"Approved","OW407"
"2023-05-09 12:00",11.454997146007,"Approved","OW407"
"2023-05-09 13:00",11.4569963217491,"Approved","OW407"
"2023-05-09 14:00",11.4529954974912,"Approved","OW407"
"2023-05-09 15:00",11.4409946732333,"Approved","OW407"
"2023-05-09 16:00",11.4399938489753,"Approved","OW407"
"2023-05-09 17:00",11.4449930247174,"Approved","OW407"
"2023-05-09 18:00",11.4509922004595,"Approved","OW407"
"2023-05-09 19:00",11.4629913762016,"Approved","OW407"
"2023-05-09 20:00",11.4679905519437,"Approved","OW407"
"2023-05-09 21:00",11.4679897276858,"Approved","OW407"
"2023-05-09 22:00",11.4669889034279,"Approved","OW407"
"2023-05-09 23:00",11.45998807917,"Approved","OW407"
"2023-05-10 00:00",11.4539872549121,"Approved","OW407"
"2023-05-10 01:00",11.4479864306542,"Approved","OW407"
"2023-05-10 02:00",11.4429856063962,"Approved","OW407"
"2023-05-10 03:00",11.4429847821383,"Approved","OW407"
"2023-05-10 04:00",11.4429839578804,"Approved","OW407"
"2023-05-10 05:00",11.4459831336225,"Approved","OW407"
"2023-05-10 06:00",11.4449823093646,"Approved","OW407"
"2023-05-10 07:00",11.4449814851067,"Approved","OW407"
"2023-05-10 08:00",11.4479806608488,"Approved","OW407"
"2023-05-10 09:00",11.4489798365909,"Approved","OW407"
"2023-05-10 10:00",11.450979012333,"Approved","OW407"
"2023-05-10 11:00",11.451978188075,"Approved","OW407"
"2023-05-10 12:00",11.4529773638171,"Approved","OW407"
"2023-05-10 13:00",11.4549765395592,"Approved","OW407"
"2023-05-10 14:00",11.4509757153013,"Approved","OW407"
"2023-05-10 15:00",11.4469748910434,"Approved","OW407"
"2023-05-10 16:00",11.4429740667855,"Approved","OW407"
"2023-05-10 17:00",11.4509732425276,"Approved","OW407"
"2023-05-10 18:00",11.4599724182697,"Approved","OW407"
"2023-05-10 19:00",11.4569715940118,"Approved","OW407"
"2023-05-10 20:00",11.4769707697539,"Approved","OW407"
"2023-05-10 21:00",11.4609699454959,"Approved","OW407"
"2023-05-10 22:00",11.447969121238,"Approved","OW407"
"2023-05-10 23:00",11.4469682969801,"Approved","OW407"
"2023-05-11 00:00",11.4489674727222,"Approved","OW407"
"2023-05-11 01:00",11.4459666484643,"Approved","OW407"
"2023-05-11 02:00",11.4449658242064,"Approved","OW407"
"2023-05-11 03:00",11.4449649999485,"Approved","OW407"
"2023-05-11 04:00",11.4459641756906,"Approved","OW407"
"2023-05-11 05:00",11.4459633514327,"Approved","OW407"
"2023-05-11 06:00",11.4449625271748,"Approved","OW407"
"2023-05-11 07:00",11.4459617029168,"Approved","OW407"
"2023-05-11 08:00",11.4489608786589,"Approved","OW407"
"2023-05-11 09:00",11.448960054401,"Approved","OW407"
"2023-05-11 10:00",11.4489592301431,"Approved","OW407"
"2023-05-11 11:00",11.4479584058852,"Approved","OW407"
"2023-05-11 12:00",11.4509575816273,"Approved","OW407"
"2023-05-11 13:00",11.4519567573694,"Approved","OW407"
"2023-05-11 14:00",11.4469559331115,"Approved","OW407"
"2023-05-11 15:00",11.4329551088536,"Approved","OW407"
"2023-05-11 16:00",11.4349542845957,"Approved","OW407"
"2023-05-11 17:00",11.4439534603377,"Approved","OW407"
"2023-05-11 18:00",11.4549526360798,"Approved","OW407"
"2023-05-11 19:00",11.4549518118219,"Approved","OW407"
"2023-05-11 20:00",11.458950987564,"Approved","OW407"
"2023-05-11 21:00",11.4619501633061,"Approved","OW407"
"2023-05-11 22:00",11.4569493390482,"Approved","OW407"
"2023-05-11 23:00",11.4489485147903,"Approved","OW407"
"2023-05-12 00:00",11.4389476905324,"Approved","OW407"
"2023-05-12 01:00",11.4319468662745,"Approved","OW407"
"2023-05-12 02:00",11.4319460420165,"Approved","OW407"
"2023-05-12 03:00",11.4279452177586,"Approved","OW407"
"2023-05-12 04:00",11.4289443935007,"Approved","OW407"
"2023-05-12 05:00",11.4249435692428,"Approved","OW407"
"2023-05-12 06:00",11.4239427449849,"Approved","OW407"
"2023-05-12 07:00",11.423941920727,"Approved","OW407"
"2023-05-12 08:00",11.4249410964691,"Approved","OW407"
"2023-05-12 09:00",11.4269402722112,"Approved","OW407"
"2023-05-12 10:00",11.4269394479533,"Approved","OW407"
"2023-05-12 11:00",11.4279386236954,"Approved","OW407"
"2023-05-12 12:00",11.4299377994374,"Approved","OW407"
"2023-05-12 13:00",11.4289369751795,"Approved","OW407"
"2023-05-12 14:00",11.4269361509216,"Approved","OW407"
"2023-05-12 15:00",11.4179353266637,"Approved","OW407"
"2023-05-12 16:00",11.4199345024058,"Approved","OW407"
"2023-05-12 17:00",11.4259336781479,"Approved","OW407"
"2023-05-12 18:00",11.43593285389,"Approved","OW407"
"2023-05-12 19:00",11.4519320296321,"Approved","OW407"
"2023-05-12 20:00",11.4669312053742,"Approved","OW407"
"2023-05-12 21:00",11.4629303811162,"Approved","OW407"
"2023-05-12 22:00",11.4569295568583,"Approved","OW407"
"2023-05-12 23:00",11.4459287326004,"Approved","OW407"
"2023-05-13 00:00",11.4359279083425,"Approved","OW407"
"2023-05-13 01:00",11.4309270840846,"Approved","OW407"
"2023-05-13 02:00",11.4249262598267,"Approved","OW407"
"2023-05-13 03:00",11.4209254355688,"Approved","OW407"
"2023-05-13 04:00",11.4139246113109,"Approved","OW407"
"2023-05-13 05:00",11.411923787053,"Approved","OW407"
"2023-05-13 06:00",11.4119229627951,"Approved","OW407"
"2023-05-13 07:00",11.4109221385371,"Approved","OW407"
"2023-05-13 08:00",11.4109213142792,"Approved","OW407"
"2023-05-13 09:00",11.4079204900213,"Approved","OW407"
"2023-05-13 10:00",11.4109196657634,"Approved","OW407"
"2023-05-13 11:00",11.4119188415055,"Approved","OW407"
"2023-05-13 12:00",11.4149180172476,"Approved","OW407"
"2023-05-13 13:00",11.4139171929897,"Approved","OW407"
"2023-05-13 14:00",11.4109163687318,"Approved","OW407"
"2023-05-13 15:00",11.4079155444739,"Approved","OW407"
"2023-05-13 16:00",11.411914720216,"Approved","OW407"
"2023-05-13 17:00",11.419913895958,"Approved","OW407"
"2023-05-13 18:00",11.4259130717001,"Approved","OW407"
"2023-05-13 19:00",11.4369122474422,"Approved","OW407"
"2023-05-13 20:00",11.4469114231843,"Approved","OW407"
"2023-05-13 21:00",11.4549105989264,"Approved","OW407"
"2023-05-13 22:00",11.4639097746685,"Approved","OW407"
"2023-05-13 23:00",11.4529089504106,"Approved","OW407"
"2023-05-14 00:00",11.4409081261527,"Approved","OW407"
"2023-05-14 01:00",11.4299073018948,"Approved","OW407"
"2023-05-14 02:00",11.4209064776369,"Approved","OW407"
"2023-05-14 03:00",11.4169056533789,"Approved","OW407"
"2023-05-14 04:00",11.407904829121,"Approved","OW407"
"2023-05-14 05:00",11.4049040048631,"Approved","OW407"
"2023-05-14 06:00",11.4029031806052,"Approved","OW407"
"2023-05-14 07:00",11.4039023563473,"Approved","OW407"
"2023-05-14 08:00",11.4019015320894,"Approved","OW407"
"2023-05-14 09:00",11.4009007078315,"Approved","OW407"
"2023-05-14 10:00",11.4018998835736,"Approved","OW407"
"2023-05-14 11:00",11.4008990593157,"Approved","OW407"
"2023-05-14 12:00",11.4028982350577,"Approved","OW407"
"2023-05-14 13:00",11.4028974107998,"Approved","OW407"
"2023-05-14 14:00",11.4018965865419,"Approved","OW407"
"2023-05-14 15:00",11.403895762284,"Approved","OW407"
"2023-05-14 16:00",11.4118949380261,"Approved","OW407"
"2023-05-14 17:00",11.4178941137682,"Approved","OW407"
"2023-05-14 18:00",11.4298932895103,"Approved","OW407"
"2023-05-14 19:00",11.4448924652524,"Approved","OW407"
"2023-05-14 20:00",11.4558916409945,"Approved","OW407"
"2023-05-14 21:00",11.4608908167366,"Approved","OW407"
"2023-05-14 22:00",11.4588899924786,"Approved","OW407"
"2023-05-14 23:00",11.4428891682207,"Approved","OW407"
"2023-05-15 00:00",11.4298883439628,"Approved","OW407"
"2023-05-15 01:00",11.4208875197049,"Approved","OW407"
"2023-05-15 02:00",11.413886695447,"Approved","OW407"
"2023-05-15 03:00",11.4098858711891,"Approved","OW407"
"2023-05-15 04:00",11.4008850469312,"Approved","OW407"
"2023-05-15 05:00",11.3938842226733,"Approved","OW407"
"2023-05-15 06:00",11.3918833984154,"Approved","OW407"
"2023-05-15 07:00",11.3908825741575,"Approved","OW407"
"2023-05-15 08:00",11.3938817498995,"Approved","OW407"
"2023-05-15 09:00",11.3918809256416,"Approved","OW407"
"2023-05-15 10:00",11.3928801013837,"Approved","OW407"
"2023-05-15 11:00",11.3908792771258,"Approved","OW407"
"2023-05-15 12:00",11.3938784528679,"Approved","OW407"
"2023-05-15 13:00",11.39387762861,"Approved","OW407"
"2023-05-15 14:00",11.3918768043521,"Approved","OW407"
"2023-05-15 15:00",11.3968759800942,"Approved","OW407"
"2023-05-15 16:00",11.4058751558363,"Approved","OW407"
"2023-05-15 17:00",11.4178743315783,"Approved","OW407"
"2023-05-15 18:00",11.4358735073204,"Approved","OW407"
"2023-05-15 19:00",11.4508726830625,"Approved","OW407"
"2023-05-15 20:00",11.4538718588046,"Approved","OW407"
"2023-05-15 21:00",11.4438710345467,"Approved","OW407"
"2023-05-15 22:00",11.4428702102888,"Approved","OW407"
"2023-05-15 23:00",11.4328693860309,"Approved","OW407"
"2023-05-16 00:00",11.417868561773,"Approved","OW407"
"2023-05-16 01:00",11.4108677375151,"Approved","OW407"
"2023-05-16 02:00",11.4058669132572,"Approved","OW407"
"2023-05-16 03:00",11.4038660889992,"Approved","OW407"
"2023-05-16 04:00",11.4008652647413,"Approved","OW407"
"2023-05-16 05:00",11.4008644404834,"Approved","OW407"
"2023-05-16 06:00",11.3998636162255,"Approved","OW407"
"2023-05-16 07:00",11.3998627919676,"Approved","OW407"
"2023-05-16 08:00",11.4008619677097,"Approved","OW407"
"2023-05-16 09:00",11.4038611434518,"Approved","OW407"
"2023-05-16 10:00",11.4058603191939,"Approved","OW407"
"2023-05-16 11:00",11.406859494936,"Approved","OW407"
"2023-05-16 12:00",11.4108586706781,"Approved","OW407"
"2023-05-16 13:00",11.4108578464201,"Approved","OW407"
"2023-05-16 14:00",11.4108570221622,"Approved","OW407"
"2023-05-16 15:00",11.4208561979043,"Approved","OW407"
"2023-05-16 16:00",11.4268553736464,"Approved","OW407"
"2023-05-16 17:00",11.4358545493885,"Approved","OW407"
"2023-05-16 18:00",11.4358537251306,"Approved","OW407"
"2023-05-16 19:00",11.4378529008727,"Approved","OW407"
"2023-05-16 20:00",11.4388520766148,"Approved","OW407"
"2023-05-16 21:00",11.4378512523569,"Approved","OW407"
"2023-05-16 22:00",11.429850428099,"Approved","OW407"
"2023-05-16 23:00",11.422849603841,"Approved","OW407"
"2023-05-17 00:00",11.4198487795831,"Approved","OW407"
"2023-05-17 01:00",11.4198479553252,"Approved","OW407"
"2023-05-17 02:00",11.4208471310673,"Approved","OW407"
"2023-05-17 03:00",11.4188463068094,"Approved","OW407"
"2023-05-17 04:00",11.4188454825515,"Approved","OW407"
"2023-05-17 05:00",11.4188446582936,"Approved","OW407"
"2023-05-17 06:00",11.4198438340357,"Approved","OW407"
"2023-05-17 07:00",11.4178430097778,"Approved","OW407"
"2023-05-17 08:00",11.4198421855198,"Approved","OW407"
"2023-05-17 09:00",11.4198413612619,"Approved","OW407"
"2023-05-17 10:00",11.420840537004,"Approved","OW407"
"2023-05-17 11:00",11.4228397127461,"Approved","OW407"
"2023-05-17 12:00",11.4248388884882,"Approved","OW407"
"2023-05-17 13:00",11.4268380642303,"Approved","OW407"
"2023-05-17 14:00",11.4248372399724,"Approved","OW407"
"2023-05-17 15:00",11.4248364157145,"Approved","OW407"
"2023-05-17 16:00",11.4328355914566,"Approved","OW407"
"2023-05-17 17:00",11.4388347671987,"Approved","OW407"
"2023-05-17 18:00",11.4478339429407,"Approved","OW407"
"2023-05-17 19:00",11.4538331186828,"Approved","OW407"
"2023-05-17 20:00",11.4628322944249,"Approved","OW407"
"2023-05-17 21:00",11.466831470167,"Approved","OW407"
"2023-05-17 22:00",11.4658306459091,"Approved","OW407"
"2023-05-17 23:00",11.4578298216512,"Approved","OW407"
"2023-05-18 00:00",11.4488289973933,"Approved","OW407"
"2023-05-18 01:00",11.4428281731354,"Approved","OW407"
"2023-05-18 02:00",11.4358273488775,"Approved","OW407"
"2023-05-18 03:00",11.4328265246196,"Approved","OW407"
"2023-05-18 04:00",11.4268257003616,"Approved","OW407"
"2023-05-18 05:00",11.4238248761037,"Approved","OW407"
"2023-05-18 06:00",11.4218240518458,"Approved","OW407"
"2023-05-18 07:00",11.4228232275879,"Approved","OW407"
"2023-05-18 08:00",11.42182240333,"Approved","OW407"
"2023-05-18 09:00",11.4248215790721,"Approved","OW407"
"2023-05-18 10:00",11.4248207548142,"Approved","OW407"
"2023-05-18 11:00",11.4258199305563,"Approved","OW407"
"2023-05-18 12:00",11.4278191062984,"Approved","OW407"
"2023-05-18 13:00",11.4278182820404,"Approved","OW407"
"2023-05-18 14:00",11.4258174577825,"Approved","OW407"
"2023-05-18 15:00",11.4258166335246,"Approved","OW407"
"2023-05-18 16:00",11.4358158092667,"Approved","OW407"
"2023-05-18 17:00",11.4418149850088,"Approved","OW407"
"2023-05-18 18:00",11.4478141607509,"Approved","OW407"
"2023-05-18 19:00",11.441813336493,"Approved","OW407"
"2023-05-18 20:00",11.4438125122351,"Approved","OW407"
"2023-05-18 21:00",11.4408116879772,"Approved","OW407"
"2023-05-18 22:00",11.4348108637193,"Approved","OW407"
"2023-05-18 23:00",11.4298100394613,"Approved","OW407"
"2023-05-19 00:00",11.4268092152034,"Approved","OW407"
"2023-05-19 01:00",11.4258083909455,"Approved","OW407"
"2023-05-19 02:00",11.4198075666876,"Approved","OW407"
"2023-05-19 03:00",11.4148067424297,"Approved","OW407"
"2023-05-19 04:00",11.4108059181718,"Approved","OW407"
"2023-05-19 05:00",11.4058050939139,"Approved","OW407"
"2023-05-19 06:00",11.406804269656,"Approved","OW407"
"2023-05-19 07:00",11.4048034453981,"Approved","OW407"
"2023-05-19 08:00",11.4008026211402,"Approved","OW407"
"2023-05-19 09:00",11.4008017968822,"Approved","OW407"
"2023-05-19 10:00",11.3998009726243,"Approved","OW407"
"2023-05-19 11:00",11.3968001483664,"Approved","OW407"
"2023-05-19 12:00",11.3977993241085,"Approved","OW407"
"2023-05-19 13:00",11.3977984998506,"Approved","OW407"
"2023-05-19 14:00",11.3957976755927,"Approved","OW407"
"2023-05-19 15:00",11.3997968513348,"Approved","OW407"
"2023-05-19 16:00",11.4057960270769,"Approved","OW407"
"2023-05-19 17:00",11.419795202819,"Approved","OW407"
"2023-05-19 18:00",11.4387943785611,"Approved","OW407"
"2023-05-19 19:00",11.4617935543031,"Approved","OW407"
"2023-05-19 20:00",11.4727927300452,"Approved","OW407"
"2023-05-19 21:00",11.4607919057873,"Approved","OW407"
"2023-05-19 22:00",11.4457910815294,"Approved","OW407"
"2023-05-19 23:00",11.4347902572715,"Approved","OW407"
"2023-05-20 00:00",11.4257894330136,"Approved","OW407"
"2023-05-20 01:00",11.4197886087557,"Approved","OW407"
"2023-05-20 02:00",11.4147877844978,"Approved","OW407"
"2023-05-20 03:00",11.4097869602399,"Approved","OW407"
"2023-05-20 04:00",11.402786135982,"Approved","OW407"
"2023-05-20 05:00",11.396785311724,"Approved","OW407"
"2023-05-20 06:00",11.3947844874661,"Approved","OW407"
"2023-05-20 07:00",11.3937836632082,"Approved","OW407"
"2023-05-20 08:00",11.3937828389503,"Approved","OW407"
"2023-05-20 09:00",11.3947820146924,"Approved","OW407"
"2023-05-20 10:00",11.3957811904345,"Approved","OW407"
"2023-05-20 11:00",11.3957803661766,"Approved","OW407"
"2023-05-20 12:00",11.3967795419187,"Approved","OW407"
"2023-05-20 13:00",11.3987787176608,"Approved","OW407"
"2023-05-20 14:00",11.3977778934028,"Approved","OW407"
"2023-05-20 15:00",11.4057770691449,"Approved","OW407"
"2023-05-20 16:00",11.413776244887,"Approved","OW407"
"2023-05-20 17:00",11.4237754206291,"Approved","OW407"
"2023-05-20 18:00",11.4297745963712,"Approved","OW407"
"2023-05-20 19:00",11.4397737721133,"Approved","OW407"
"2023-05-20 20:00",11.4487729478554,"Approved","OW407"
"2023-05-20 21:00",11.4487721235975,"Approved","OW407"
"2023-05-20 22:00",11.4657712993396,"Approved","OW407"
"2023-05-20 23:00",11.4227704750817,"Approved","OW407"
"2023-05-21 00:00",11.4107696508237,"Approved","OW407"
"2023-05-21 01:00",11.3997688265658,"Approved","OW407"
"2023-05-21 02:00",11.3987680023079,"Approved","OW407"
"2023-05-21 03:00",11.39876717805,"Approved","OW407"
"2023-05-21 04:00",11.3957663537921,"Approved","OW407"
"2023-05-21 05:00",11.3947655295342,"Approved","OW407"
"2023-05-21 06:00",11.3957647052763,"Approved","OW407"
"2023-05-21 07:00",11.3947638810184,"Approved","OW407"
"2023-05-21 08:00",11.3947630567605,"Approved","OW407"
"2023-05-21 09:00",11.3947622325026,"Approved","OW407"
"2023-05-21 10:00",11.3947614082446,"Approved","OW407"
"2023-05-21 11:00",11.3947605839867,"Approved","OW407"
"2023-05-21 12:00",11.3947597597288,"Approved","OW407"
"2023-05-21 13:00",11.3947589354709,"Approved","OW407"
"2023-05-21 14:00",11.393758111213,"Approved","OW407"
"2023-05-21 15:00",11.3927572869551,"Approved","OW407"
"2023-05-21 16:00",11.3927564626972,"Approved","OW407"
"2023-05-21 17:00",11.3957556384393,"Approved","OW407"
"2023-05-21 18:00",11.3957548141814,"Approved","OW407"
"2023-05-21 19:00",11.4067539899234,"Approved","OW407"
"2023-05-21 20:00",11.4027531656655,"Approved","OW407"
"2023-05-21 21:00",11.3957523414076,"Approved","OW407"
"2023-05-21 22:00",11.3917515171497,"Approved","OW407"
"2023-05-21 23:00",11.3897506928918,"Approved","OW407"
"2023-05-22 00:00",11.3877498686339,"Approved","OW407"
"2023-05-22 01:00",11.390749044376,"Approved","OW407"
"2023-05-22 02:00",11.3897482201181,"Approved","OW407"
"2023-05-22 03:00",11.3897473958602,"Approved","OW407"
"2023-05-22 04:00",11.3897465716023,"Approved","OW407"
"2023-05-22 05:00",11.3897457473443,"Approved","OW407"
"2023-05-22 06:00",11.3897449230864,"Approved","OW407"
"2023-05-22 07:00",11.3897440988285,"Approved","OW407"
"2023-05-22 08:00",11.3897432745706,"Approved","OW407"
"2023-05-22 09:00",11.3887424503127,"Approved","OW407"
"2023-05-22 10:00",11.3897416260548,"Approved","OW407"
"2023-05-22 11:00",11.3897408017969,"Approved","OW407"
"2023-05-22 12:00",11.388739977539,"Approved","OW407"
"2023-05-22 13:00",11.3907391532811,"Approved","OW407"
"2023-05-22 14:00",11.3907383290232,"Approved","OW407"
"2023-05-22 15:00",11.3867375047652,"Approved","OW407"
"2023-05-22 16:00",11.3817366805073,"Approved","OW407"
"2023-05-22 17:00",11.3827358562494,"Approved","OW407"
"2023-05-22 18:00",11.3827350319915,"Approved","OW407"
"2023-05-22 19:00",11.3817342077336,"Approved","OW407"
"2023-05-22 20:00",11.3827333834757,"Approved","OW407"
"2023-05-22 21:00",11.3807325592178,"Approved","OW407"
"2023-05-22 22:00",11.3787317349599,"Approved","OW407"
"2023-05-22 23:00",11.379730910702,"Approved","OW407"
"2023-05-23 00:00",11.377730086444,"Approved","OW407"
"2023-05-23 01:00",11.3787292621861,"Approved","OW407"
"2023-05-23 02:00",11.3777284379282,"Approved","OW407"
"2023-05-23 03:00",11.3787276136703,"Approved","OW407"
"2023-05-23 04:00",11.3797267894124,"Approved","OW407"
"2023-05-23 05:00",11.3817259651545,"Approved","OW407"
"2023-05-23 06:00",11.3837251408966,"Approved","OW407"
"2023-05-23 07:00",11.3847243166387,"Approved","OW407"
"2023-05-23 08:00",11.3857234923808,"Approved","OW407"
"2023-05-23 09:00",11.3847226681229,"Approved","OW407"
"2023-05-23 10:00",11.3887218438649,"Approved","OW407"
"2023-05-23 11:00",11.392721019607,"Approved","OW407"
"2023-05-23 12:00",11.3927201953491,"Approved","OW407"
"2023-05-23 13:00",11.3927193710912,"Approved","OW407"
"2023-05-23 14:00",11.3887185468333,"Approved","OW407"
"2023-05-23 15:00",11.3787177225754,"Approved","OW407"
"2023-05-23 16:00",11.3867168983175,"Approved","OW407"
"2023-05-23 17:00",11.3937160740596,"Approved","OW407"
"2023-05-23 18:00",11.3947152498017,"Approved","OW407"
"2023-05-23 19:00",11.3937144255438,"Approved","OW407"